Voltar ao catálogo

USA 475

AtivoMilitarVLEO
NORAD 62544·PAYLOAD·🇺🇸 United States

Lançado Jan 10, 2025 de Vandenberg Space Force Base

Loading…

Próximas Passagens (próximas 24 horas)

TLE

ObsoletoSource: Mike McCants

Época: Sep 1, 2026, 02:02 UTC

1 62544U 25005N   26244.08535275 0.00000000  00000-0  00000-0 0    09
2 62544  70.0256 226.3749 0003000 188.7218 171.2782 14.96713454    06

Acompanhe USA 475 em tempo real com AllMySat

Download on the App Store